Location: Moscow
(30.9132°N, 94.8252°W)
Time: 06:05:29
(UTC+00:00)

Chandra Rocket (1) - Pass Details

Date: 15 November 2025
Orbit: 253 x 10542 km, 28.5° (Epoch: 04 December)

Event Time Altitude Azimuth Distance (km) Brightness Sun altitude
Exits shadow 10:43:22 66° 211° (SSW) 887 2.6 -26.4°
Maximum altitude 10:43:45 69° 180° (S) 916 2.8 -26.3°
Drops below altitude 10° 10:54:58 10° 100° (E) 5,216 7.8 -23.9°
Sets 11:02:39 0° 99° (E) 7,978 9.2 -22.3°
